User: anonymous
Location: Mt. Chestnut Observatory
(40.9038°N, 79.9956°W)
Time: 16:57:00
(UTC-04:00)
Language:

Cosmos 2034 Rocket - Orbit

View from above orbital plane
View from above orbital plane
View from above satellite
View from above satellite

Ground track
Ground track

The orbit data is extracted from the following two-line orbital elements,

1 20150U 89059B   14108.96835961  .00000127  00000-0  11606-3 0  9515
2 20150 082.9410 231.0632 0027716 267.1190 230.9029 13.75566160241563
Epoch (UTC): 18 April 2014 23:14:26
Eccentricity: 0.0027716
inclination: 82.9410°
perigee height: 959 km
apogee height: 1000 km
right ascension of ascending node: 231.0632°
argument of perigee: 267.1190°
revolutions per day: 13.75566160
mean anomaly at epoch: 230.9029°
orbit number at epoch: 24156

The dashed part of the orbit path shows where the satellite is in the earth's shadow,  

DLR